Location: Amanico Ergina Village
(37.7824°N, 122.4366°W)
Time: 07:50:34
(UTC+00:00)

ATLAS CENTAUR R/B - Pass Details

Date: 29 October 2020
Orbit: 479 x 667 km, 64.7° (Epoch: 26 November)

Event Time Altitude Azimuth Distance (km) Brightness Sun altitude
Rises 12:39:46 0° 181° (S) 2,701 4.8 -22.8°
Reaches altitude 10° 12:42:19 10° 167° (SSE) 1,777 4.1 -22.3°
Maximum altitude 12:45:29 23° 114° (ESE) 1,124 3.6 -21.7°
Drops below altitude 10° 12:48:33 10° 60° (ENE) 1,713 4.7 -21.1°
Sets 12:50:58 0° 46° (NE) 2,578 5.4 -20.6°
